Home   Weather   Güstrow   Past weeks

Flag for Germany Past Weather in Güstrow, Mecklenburg-Western Pomerania, Germany — Yesterday and Last 2 Weeks

Now
43 °F

Passing clouds.


Feels Like: 36 °F
Forecast: 31 / 49 °F
Wind: 12 mph from West

Location: Laage

Current Time: Apr 25, 2017 at 8:40:17 pm

Latest Report: Apr 25, 2017 at 7:20 pm


Visibility: N/A

Pressure: 29.68 "Hg

Humidity: 61%

Dew Point: 30 °F

Location of GüstrowLocation

Past Weather in Güstrow — Graph

°F

Güstrow Temperature Yesterday

Maximum temperature yesterday: 52 °F (at 2:20 pm)
Minimum temperature yesterday: 36 °F (at 2:20 am)
Average temperature yesterday: 43 °F

High & Low Weather Summary for the Past Weeks

 TemperatureHumidityPressure
High57 °F (Apr 21, 3:20 pm)100% (Apr 12, 4:20 am)30.60 "Hg (Apr 12, 4:20 am)
Low27 °F (Apr 20, 3:20 am)42% (Apr 19, 2:20 pm)29.56 "Hg (Apr 25, 7:00 am)
Average42 °F77%29.98 "Hg
* Reported Apr 10 7:20 pm — Apr 25 7:20 pm, Güstrow, Weather by CustomWeather, © 2017

Note: Actual official high and low records may vary slightly from our data, if they occured in-between our weather recording intervals... More about our weather records

Advertising

Güstrow Weather History for the Previous 24 Hours

Scroll right to see more
 ConditionsComfort  
Time TempWeatherWind HumidityBarometerVisibility
7:20 pm
Tue, Apr 25
43 °FPassing clouds.12 mph61%29.68 "HgN/A
6:20 pm43 °FPassing clouds.13 mph61%29.68 "HgN/A
5:20 pm45 °FPassing clouds.17 mph66%29.65 "HgN/A
4:20 pm43 °FBroken clouds.9 mph76%29.62 "HgN/A
3:20 pm43 °FBroken clouds.14 mph76%29.59 "HgN/A
2:20 pm41 °FBroken clouds.12 mph81%29.59 "HgN/A
1:20 pm41 °FPartly sunny.3 mph87%29.59 "HgN/A
12:20 pm37 °FLight rain. Partly sunny.3 mph93%29.59 "Hg4 mi
12:06 pm37 °FLight rain. Partly sunny.2 mph87%29.59 "Hg4 mi
11:48 am39 °FRain. Fog.6 mph81%29.59 "Hg2 mi
11:36 am39 °FLight rain. Partly sunny.5 mph81%29.56 "Hg3 mi
10:20 am39 °FPartly sunny.5 mph87%29.59 "HgN/A
9:37 am37 °FBroken clouds.3 mph93%29.59 "HgN/A
8:36 am36 °FPartly sunny.2 mph93%29.56 "Hg6 mi
7:47 am36 °FBroken clouds.2 mph93%29.56 "Hg5 mi
7:20 am34 °FPartly sunny.3 mph100%29.56 "Hg4 mi
7:00 am34 °FBroken clouds.2 mph100%29.56 "Hg4 mi
6:20 am34 °FLight rain. Partly sunny.2 mph100%29.59 "Hg4 mi
5:20 am34 °FLight rain. Partly cloudy.2 mph100%29.59 "Hg4 mi
4:20 am34 °FLight rain. Partly cloudy.3 mph93%29.62 "Hg5 mi
3:20 am36 °FRain. Mostly cloudy.5 mph93%29.62 "Hg4 mi
2:20 am39 °FRain. Passing clouds.9 mph81%29.65 "Hg5 mi
1:20 am41 °FLight rain. Partly cloudy.3 mph87%29.65 "HgN/A
12:20 am41 °FLight rain. Passing clouds.6 mph87%29.68 "HgN/A
11:43 pm
Mon, Apr 24
41 °FLight rain. Partly cloudy.6 mph87%29.68 "HgN/A
11:20 pm41 °FLight rain. Passing clouds.6 mph87%29.71 "HgN/A
10:20 pm43 °FLight rain. Partly cloudy.7 mph87%29.71 "Hg6 mi
9:20 pm43 °FLight rain. Partly cloudy.5 mph93%29.71 "Hg6 mi
8:20 pm45 °FLight rain. Broken clouds.7 mph87%29.71 "Hg6 mi
Weather by CustomWeather, © 2017

See weather overviewHow to use our weather pages